Ouarzazate, Morocco

9:48 AM WEST on August 20, 2017 (GMT +0100)
Ouarzazate

Weather History for GMMZ - February, 2014

Change the Weather History Date:

Monday, February 24, 2014

  Actual Average Record
Temperature  
Mean Temperature 54 °F -  
Max Temperature 70 °F 71 °F - ()
Min Temperature 39 °F 44 °F - ()
Degree Days  
Heating Degree Days 10    
Growing Degree Days 4 (Base 50)    
Moisture  
Dew Point 22 °F    
Average Humidity 28    
Maximum Humidity 54    
Minimum Humidity 5    
Precipitation  
Precipitation 0.00 in 0.01 in - ()
Sea Level Pressure  
Sea Level Pressure 30.06 in    
Wind  
Wind Speed 3 mph ()    
Max Wind Speed 22 mph    
Max Gust Speed -    
Visibility 12.0 miles    
Events      
T = Trace of Precipitation, MM = Missing Value Source: Averaged Metar Reports

Daily Weather History Graph

Daily Weather History Graph

Search for Another Location

Airport or City:

Trip Planner

Search our weather history database for the weather conditions in past years. The results will help you decide how hot, cold, wet, or windy it might be!

Date:

Astronomy

Feb. 24, 2014 Rise Set
Actual Time 6:59 AM WET 6:22 PM WET
Civil Twilight 6:35 AM WET 6:46 PM WET
Nautical Twilight 6:07 AM WET 7:14 PM WET
Astronomical Twilight 5:39 AM WET 7:42 PM WET
Moon 2:32 AM WET (2/24) 1:21 PM WET (2/24)
Length of Visible Light 12h 11m
Length of Day
11h 22m
Waning Crescent, 30% of the Moon is Illuminated
Feb 24
Waning Crescent
Mar 1
New
Mar 8
First Quarter
Mar 16
Full
Mar 24
Last Quarter

Hourly Weather History & Observations

Time (WET) Temp. Dew Point Humidity Pressure Visibility Wind Dir Wind Speed Gust Speed Precip Events Conditions
12:00 AM 50 °F 11 °F 11%  in 12 mi NW 4.6 mph - -  
12:00 AM 50.0 °F 12.2 °F 22% 30.12 in - NW 4.6 mph - N/A   Clear
1:00 AM 48.2 °F 19.4 °F 32% 30.09 in - Variable 2.3 mph - N/A   Clear
2:00 AM 48.2 °F 23.0 °F 37% 30.09 in - Calm Calm - N/A   Clear
3:00 AM 47 °F 24 °F 28%  in 12 mi Calm Calm - -  
3:00 AM 48.2 °F 24.8 °F 40% 30.09 in - Calm Calm - N/A   Clear
4:00 AM 44.6 °F 21.2 °F 39% 30.06 in - Calm Calm - N/A   Clear
5:00 AM 42.8 °F 21.2 °F 42% 30.06 in - Calm Calm - N/A   Clear
6:00 AM 42 °F 22 °F 31%  in 12 mi NW 1.2 mph - -  
6:00 AM 41.0 °F 21.2 °F 45% 30.06 in - Calm Calm - N/A   Clear
7:00 AM 39.2 °F 21.2 °F 49% 30.06 in - Calm Calm - N/A   Clear
8:00 AM 42.8 °F 23.0 °F 46% 30.09 in - Variable 1.2 mph - N/A   Clear
9:00 AM 49 °F 25 °F 26%  in 12 mi West 1.2 mph - -  
9:00 AM 48.2 °F 24.8 °F 40% 30.12 in - Variable 2.3 mph - N/A   Clear
10:00 AM 55.4 °F 39.2 °F 54% 30.12 in - Calm Calm - N/A   Clear
11:00 AM 59.0 °F 26.6 °F 29% 30.09 in - Variable 2.3 mph - N/A   Clear
12:00 PM 62 °F 22 °F 11%  in 12 mi ESE 3.5 mph - -   Clear
12:00 PM 62.6 °F 21.2 °F 20% 30.09 in - Variable 3.5 mph - N/A   Clear
1:00 PM 66.2 °F 21.2 °F 18% 30.04 in - Variable 2.3 mph - N/A   Clear
2:00 PM 66.2 °F 15.8 °F 14% 30.01 in - Variable 3.5 mph - N/A   Clear
3:00 PM 68 °F 13 °F 5%  in 12 mi SSW 3.5 mph - -  
3:00 PM 68.0 °F 14.0 °F 12% 29.98 in - Variable 2.3 mph - N/A   Clear
4:00 PM 69.8 °F 30.2 °F 23% 29.98 in - Variable 1.2 mph - N/A   Clear
5:00 PM 69.8 °F 10.4 °F 10% 29.98 in - Variable 3.5 mph - N/A   Clear
6:00 PM 65 °F 20 °F 9%  in 12 mi WNW 21.9 mph - -   Scattered Clouds
6:00 PM 64.4 °F 21.2 °F 19% 30.01 in - WNW 20.7 mph - N/A   Clear
7:00 PM 59.0 °F 26.6 °F 29% 30.04 in - NNW 17.3 mph - N/A   Clear
8:00 PM 57.2 °F 23.0 °F 27% 30.06 in - WNW 6.9 mph - N/A   Clear
9:00 PM 56 °F 24 °F 18%  in 12 mi West 8.1 mph - -  
9:00 PM 55.4 °F 24.8 °F 31% 30.09 in - West 8.1 mph - N/A   Clear
10:00 PM 55.4 °F 24.8 °F 31% 30.09 in - WSW 4.6 mph - N/A   Clear
11:00 PM 51.8 °F 24.8 °F 35% 30.09 in - SW 5.8 mph - N/A   Clear